Weather History for KPVU - October, 2012

Change the Weather History Date:

Saturday, October 6, 2012

  Actual Average Record
Temperature  
Mean Temperature 46 °F -  
Max Temperature 60 °F 68 °F 80 °F (1985)
Min Temperature 33 °F 40 °F 32 °F (1998)
Degree Days  
Heating Degree Days 18    
Moisture  
Dew Point 25 °F    
Average Humidity 48    
Maximum Humidity 75    
Minimum Humidity 23    
Precipitation  
Precipitation 0.00 in - - ()
Sea Level Pressure  
Sea Level Pressure 30.17 in    
Wind  
Wind Speed 4 mph (NNW)    
Max Wind Speed 15 mph    
Max Gust Speed 18 mph    
Visibility 12 miles    
Events      
Averages and records for this station are not official NWS values.
T = Trace of Precipitation, MM = Missing Value Source: NWS Daily Summary

Daily Weather History Graph

Daily Weather History Graph

Search for Another Location

Airport or City:

Trip Planner

Search our weather history database for the weather conditions in past years. The results will help you decide how hot, cold, wet, or windy it might be!

Date:

Astronomy

Oct. 06, 2012 Rise Set
Actual Time 7:28 AM MDT 7:00 PM MDT
Civil Twilight 7:01 AM MDT 7:27 PM MDT
Nautical Twilight 6:30 AM MDT 7:58 PM MDT
Astronomical Twilight 5:58 AM MDT 8:30 PM MDT
Moon 11:18 PM MDT (10/6) 1:26 PM MDT (10/6)
Length of Visible Light 12h 25m
Length of Day
11h 31m
Waning Gibbous, 65% of the Moon is Illuminated
Oct 6
Waning Gibbous
Oct 8
Last Quarter
Oct 15
New
Oct 21
First Quarter
Oct 29
Full

Hourly Weather History & Observations

Time (MDT) Temp. Windchill Dew Point Humidity Pressure Visibility Wind Dir Wind Speed Gust Speed Precip Events Conditions
12:15 AM 42.8 °F 41.1 °F 26.6 °F 53% 30.16 in 10.0 mi East 3.5 mph - N/A   Clear
12:55 AM 42.8 °F 40.1 °F 28.4 °F 57% 30.16 in 10.0 mi SE 4.6 mph - N/A   Clear
1:55 AM 41.0 °F 39.0 °F 26.6 °F 57% 30.17 in 10.0 mi ESE 3.5 mph - N/A   Clear
2:15 AM 39.2 °F 37.0 °F 26.6 °F 61% 30.17 in 10.0 mi ESE 3.5 mph - N/A   Clear
2:35 AM 39.2 °F - 26.6 °F 61% 30.18 in 10.0 mi Calm Calm - N/A   Clear
2:55 AM 37.4 °F 34.9 °F 26.6 °F 65% 30.18 in 10.0 mi East 3.5 mph - N/A   Clear
3:35 AM 39.2 °F - 28.4 °F 65% 30.19 in 10.0 mi Calm Calm - N/A   Clear
3:55 AM 37.4 °F - 30.2 °F 75% 30.19 in 10.0 mi Calm Calm - N/A   Clear
4:15 AM 35.6 °F - 28.4 °F 75% 30.18 in 10.0 mi Calm Calm - N/A   Clear
4:35 AM 37.4 °F 34.9 °F 26.6 °F 65% 30.18 in 10.0 mi SE 3.5 mph - N/A   Clear
4:55 AM 33.8 °F 29.6 °F 24.8 °F 70% 30.19 in 10.0 mi East 4.6 mph - N/A   Clear
5:35 AM 35.6 °F 30.7 °F 24.8 °F 65% 30.19 in 10.0 mi ENE 5.8 mph - N/A   Clear
5:55 AM 35.6 °F - 24.8 °F 65% 30.20 in 10.0 mi Calm Calm - N/A   Clear
6:15 AM 37.4 °F - 23.0 °F 56% 30.20 in 10.0 mi Calm Calm - N/A   Clear
6:35 AM 35.6 °F - 21.2 °F 56% 30.20 in 10.0 mi Calm Calm - N/A   Clear
6:47 AM 35.6 °F - 23.0 °F 60% 30.20 in 15.0 mi Calm Calm - N/A   Clear
7:47 AM 33.8 °F - 23.0 °F 65% 30.21 in 15.0 mi Calm Calm - N/A   Clear
8:47 AM 41.0 °F - - N/A% 30.23 in 15.0 mi Calm Calm - N/A   Clear
9:55 AM 46.4 °F - 24.8 °F 43% 30.23 in 15.0 mi Calm Calm - N/A   Clear
10:51 AM 50.0 °F - 24.8 °F 37% 30.23 in 15.0 mi Variable 3.5 mph - N/A   Clear
11:59 AM 51.8 °F - 26.6 °F 38% 30.22 in 15.0 mi Variable 4.6 mph - N/A   Clear
1:22 PM 55.4 °F - 19.4 °F 25% 30.19 in 15.0 mi Variable 5.8 mph - N/A   Clear
1:48 PM 55.4 °F - 21.2 °F 26% 30.17 in 15.0 mi NW 5.8 mph - N/A   Clear
2:53 PM 57.2 °F - 23.0 °F 27% 30.15 in 15.0 mi SW 6.9 mph - N/A   Partly Cloudy
3:49 PM 59.0 °F - 21.2 °F 23% 30.12 in 15.0 mi NW 8.1 mph - N/A   Partly Cloudy
5:47 PM 60.8 °F - 26.6 °F 27% 30.10 in 15.0 mi WNW 12.7 mph - N/A   Partly Cloudy
6:55 PM 55.4 °F - 21.2 °F 26% 30.11 in 15.0 mi NW 10.4 mph - N/A   Partly Cloudy
7:53 PM 53.6 °F - 24.8 °F 33% 30.11 in 15.0 mi WNW 12.7 mph - N/A   Partly Cloudy
8:48 PM 51.8 °F - 24.8 °F 35% 30.12 in 15.0 mi West 13.8 mph - N/A   Partly Cloudy
9:15 PM 51.8 °F - 24.8 °F 35% 30.12 in 10.0 mi NW 13.8 mph - N/A   Clear
9:35 PM 51.8 °F - 24.8 °F 35% 30.13 in 10.0 mi NW 13.8 mph - N/A   Clear
9:55 PM 51.8 °F - 23.0 °F 33% 30.13 in 10.0 mi NW 15.0 mph 18.4 mph N/A   Clear
10:15 PM 51.8 °F - 23.0 °F 33% 30.13 in 10.0 mi NW 15.0 mph - N/A   Clear
10:35 PM 51.8 °F - 21.2 °F 30% 30.13 in 10.0 mi NNW 11.5 mph 17.3 mph N/A   Clear
10:55 PM 46.4 °F 42.9 °F 26.6 °F 46% 30.13 in 10.0 mi NNE 6.9 mph - N/A   Clear
11:35 PM 44.6 °F - 24.8 °F 46% 30.14 in 10.0 mi Calm Calm - N/A   Clear